Tracking 27107 objects as of 21-Mar-2023
HD Live streaming from Space Station
objects crossing your sky now

INTERCOSMOS 25

Track INTERCOSMOS 25 now!
10-day predictions
INTERCOSMOS 25 is classified as:


NORAD ID: 21819
Int'l Code: 1991-086A
Perigee: 445.8 km
Apogee: 2,871.6 km
Inclination: 82.6 °
Period: 119.3 minutes
Semi major axis: 8029 km
RCS: 7.3989 m2 (large)
Launch date: December 18, 1991
Source: Commonwealth of Independent States (former USSR) (CIS)
Launch site: PLESETSK MISSILE AND SPACE COMPLEX (PKMTR)
Your satellite tracking list
Your tracking list is empty




NASA's NSSDC Master Catalog

Two Line Element Set (TLE):
1 21819U 91086A   23079.67907978  .00001640  00000-0  33110-3 0  9991
2 21819  82.6026 243.1695 1510478 286.1480  57.8919 12.06571083365536
Source of the keplerian elements: AFSPC